Location: St. Louis
(38.6270°N, 90.1994°W)
Time: 12:04:33
(UTC-06:00)

A-11 Canister half - Pass Details

Date: 09 December 2021
Orbit: 1524 x 1684 km, 47.3° (Epoch: 25 January)

Event Time Altitude Azimuth Distance (km) Brightness Sun altitude
Rises 20:44:43 0° 175° (S) 4,860 - -47.1°
Reaches altitude 10° 20:49:32 10° 156° (SSE) 3,902 - -48.0°
Maximum altitude 20:54:56 16° 122° (ESE) 3,464 - -49.0°
Drops below altitude 10° 21:00:21 10° 89° (E) 3,945 - -50.1°
Sets 21:05:12 0° 70° (ENE) 4,940 - -51.0°
